Regional Weather Roundup
Issued by NWS Sioux Falls, SD

Home | Current Version | Previous Version | Text Only | Print | Product List | Glossary On
Versions: 1 2 3 4 5 6 7 8 9 10 11 12 13 14 15 16 17 18 19 20 21 22 23 24 25 26 27 28 29 30 31 32 33 34 35 36 37 38 39 40 41 42 43 44 45 46 47 48 49 50
000
ASUS43 KFSD 282310
RWRFSD

WEATHER ROUNDUP FOR SE SOUTH DAKOTA/SW MINNESOTA/NW IOWA
NATIONAL WEATHER SERVICE SIOUX FALLS SD
500 PM CST SAT FEB 28 2015

NOTE: "FAIR" INDICATES FEW OR NO CLOUDS BELOW 12,000 FEET WITH NO
SIGNIFICANT WEATHER AND OR OBSTRUCTIONS TO VISIBILITY.


SDZ038>040-050-052>070-010000-
SOUTHEAST SOUTH DAKOTA

CITY           SKY/WX    TMP DP  RH WIND       PRES   REMARKS
CHAMBERLAIN    SUNNY     34   7  31 W15G21    30.12S WCI  25
HURON          CLOUDY    32  15  49 S8        30.13F WCI  25
MADISON        MOCLDY    27  14  59 SW16G23   30.16S WCI  14
MITCHELL       SUNNY     34  10  37 S13       30.17S WCI  25
SIOUX FALLS    PTSUNNY   27  13  55 S15G23    30.20F WCI  15
WINNER         FAIR      35   4  27 NW14      30.12R WCI  26
YANKTON        SUNNY     30  10  43 SW13G20   30.23S WCI  20
$$

MNZ071-072-080-081-089-090-097-098-010000-
SOUTHWEST MINNESOTA

CITY           SKY/WX    TMP DP  RH WIND       PRES   REMARKS
FAIRMONT       CLOUDY    19  10  68 S14       30.31F WCI   6
JACKSON        FLURRIES  21  12  68 S14       30.30S WCI   8
LUVERNE        MOSUNNY   25  16  68 S16       30.24F WCI  12
MARSHALL       PTSUNNY   21  12  68 S16G23    30.26F WCI   7
MONTEVIDEO     CLOUDY    23  14  68 SW15      30.26F WCI  10
PIPESTONE      CLOUDY    21  16  79 S18       30.20S WCI   6
REDWOOD FALLS  CLOUDY    21  12  68 S21       30.30S WCI   5
TRACY          FLURRIES  22  15  74 S12       30.26S WCI  10
WINDOM         FLURRIES  19  12  73 S14G21    30.28F WCI   6
WORTHINGTON    PTSUNNY   28  10  47 S16       30.27F WCI  17
$$

IAZ001>003-012>014-020>022-031-032-NEZ013-014-SDZ071-010000-
NORTHWEST IOWA

CITY           SKY/WX    TMP DP  RH WIND       PRES   REMARKS
CHEROKEE       CLOUDY    22  14  71 S14       30.31S WCI   9
DENISON        PTSUNNY   21  16  79 S13       30.31F WCI   9
ESTHERVILLE    CLOUDY    20  11  68 S18       30.31F WCI   5
LE MARS        CLOUDY    25  16  68 S14G21    30.29S WCI  13
ORANGE CITY    CLOUDY    25  16  68 S16       30.26F WCI  12
SHELDON        CLOUDY    21  14  73 S16G24    30.26S WCI   7
SIOUX CITY     CLOUDY    27  15  61 S15       30.30F WCI  15
SPENCER        CLOUDY    21  12  68 S15       30.30F WCI   8
STORM LAKE     MIX PCPN  21  12  68 S15       30.31S WCI   8
$$

ABBREVIATIONS USED IN REMARKS
   TC - TEMPERATURE IN CELSIUS
  WCI - WIND CHILL INDEX
   HX - HEAT INDEX
  VSB - VISIBILITY



USA.gov is the U.S. government's official web portal to all federal, state and local government web resources and services.